Terminal Aerodrome Forecast
Issued by NWS Blacksburg, VA

Current Version | Previous Version | Graphics & Text | Print | Product List | Glossary On
Versions: 1 2 3 4 5 6 7 8 9 10 11 12 13 14 15 16 17 18 19 20 21 22 23 24 25 26 27 28 29 30 31 32 33 34 35 36 37 38 39 40 41 42 43 44 45 46 47 48 49 50
000
FTUS41 KRNK 211925 AAA
TAFBLF
TAF AMD
KBLF 211925Z 2119/2218 27009G18KT P6SM VCSH SCT015 BKN025
     FM212100 27012KT P6SM -SHRA BKN035
     FM212300 23014G28KT 3SM TSRA BKN020CB
     FM220100 28008KT P6SM BKN050
     FM220900 29005KT P6SM OVC012
     FM221400 31007KT P6SM SCT007 OVC015=

USA.gov is the U.S. government's official web portal to all federal, state and local government web resources and services.